Location: Thompson
(55.7500°N, 97.8670°W)
Time: 13:45:02
(UTC-05:00)

Daily predictions for brighter satellites

Satellite Brightness Start Highest point End
(mag) Time Altitude Azimuth Time Altitude Azimuth Time Altitude Azimuth
Terra 2.3 22:33:54 10° SE 22:38:30 50° ENE 22:43:07 10° N
Cosmos 1943 Rocket 2.4 22:33:18 10° S 22:38:38 47° ESE 22:43:56 10° NE
Gbstr 26 Del rocket 3.3 22:34:24 10° W 22:39:07 50° S 22:43:05 10° ESE
CARTOSAT-1 4.0 22:36:57 10° SE 22:41:08 50° ENE 22:45:21 10° N
NOSS 3-2 (C) 3.6 22:36:18 10° SW 22:42:34 84° SE 22:49:36 10° NE
Cosmos 2344 4.1 22:39:29 10° S 22:46:30 40° ESE 22:54:34 10° NE
SPOT 1/Viking Rocket 3.7 22:42:49 10° SSE 22:48:02 81° WSW 22:53:18 10° NNW
Cosmos 2263 4.3 22:42:49 10° SSW 22:48:31 65° ESE 22:54:12 10° NE
Cosmos 372 Rocket 4.0 22:44:57 10° S 22:49:58 60° ESE 22:55:01 10° NNE
Cosmos 405 Rocket 3.9 22:47:05 10° N 22:50:24 29° ENE 22:53:42 10° SE
Cosmos 1606 4.3 22:49:22 10° NNW 22:52:47 32° W 22:56:11 10° SSW
SPOT 5 3.6 22:49:19 10° S 22:54:36 60° WSW 22:59:48 10° NNW
Molniya-1 3.0 22:54:02 10° SSW 22:55:25 25° SE 22:56:54 10° ENE
CENTAUR R/B 2.8 22:50:42 10° SSW 22:56:46 53° SE 23:03:43 10° NE
H-2A R/B 2.5 22:54:07 10° SE 22:58:04 47° ENE 23:02:05 10° N
COSMOS 2455 2.9 22:52:06 10° SW 22:58:08 85° SE 23:04:12 10° NE
Cosmos 1092 Rocket 4.3 22:53:06 10° SSE 22:58:57 48° E 23:04:50 10° NNE
Okean 3 3.6 22:55:27 10° N 22:59:38 64° ENE 23:03:47 10° SSE
Nadezhda 4 Rocket 4.1 22:53:37 10° S 22:59:44 65° E 23:05:49 10° NNE
GEOS 3 Rocket 3.9 22:55:01 10° SSE 23:00:09 61° SW 23:05:24 10° NW
Cosmos 2369 Rocket 2.3 22:54:47 10° SW 23:00:29 86° NW 23:06:16 10° NE
Cosmos 1125 Rocket 3.5 22:55:36 10° SSW 23:00:51 81° ESE 23:06:07 10° NNE
Lacrosse 5 rocket 1.5 23:00:04 10° SSW 23:03:26 37° SE 23:06:55 10° ENE
IGS 5A 3.5 23:05:46 10° SSE 23:09:55 82° ENE 23:14:07 10° NNW
Cosmos 2297 Rocket 2.9 23:06:51 10° NNW 23:12:22 48° NE 23:17:50 10° ESE
Spot 4 4.2 23:09:14 11° SE 23:13:48 55° ENE 23:18:31 10° N
ATLAS 5 CENTAUR R/B 3.8 23:11:29 10° WNW 23:16:20 27° WSW 23:21:34 10° S
Cosmos 1441 Rocket 4.2 23:12:44 10° N 23:16:23 36° ENE 23:19:34 12° SE
Cosmos 1867 4.2 23:12:33 10° NW 23:17:46 47° SW 23:22:44 11° SSE
Cosmos 1908 Rocket 4.0 23:15:41 10° SSE 23:19:57 47° E 23:24:14 10° NNE
Okean 2 Rocket 4.3 23:25:48 13° SE 23:28:57 28° E 23:32:46 10° NNE
H-2A R/B 3.1 23:24:12 10° SSW 23:29:18 42° W 23:34:19 10° NNW
DELTA 2 DEB (DPAF) 4.5 23:25:58 13° SE 23:29:49 57° ENE 23:34:13 10° N
ATLAS 3B R/B 3.9 23:24:24 10° W 23:31:22 48° NNW 23:37:59 10° ENE
deb Chang Zheng 4 4.3 23:29:51 10° NNE 23:34:01 37° E 23:37:22 14° SSE
Cosmos 1656 Rocket 3.7 23:31:42 10° SSW 23:37:05 59° ESE 23:42:33 10° NE
Cosmos 2082 4.0 23:31:38 10° NNW 23:37:21 65° NE 23:42:35 12° SE
PSLV R/B 2.8 23:36:55 18° SSE 23:38:50 79° ENE 23:41:37 10° NNW
CZ-2C R/B 3.8 23:35:40 12° SE 23:39:59 40° ENE 23:44:31 10° N
CZ-4B R/B 4.2 23:36:51 10° NNE 23:41:31 37° E 23:45:06 15° SSE
Cosmos 1733 Rocket 3.7 23:40:44 10° SSW 23:44:58 54° WNW 23:49:16 10° N
APEX 3.6 23:40:11 10° NW 23:45:20 87° SW 23:48:23 17° SSE
Cosmos 1825 4.4 23:42:53 10° WSW 23:46:04 25° WNW 23:49:15 10° N
Cosmos 1782 Rocket 3.8 23:43:45 15° SSE 23:47:18 52° E 23:51:35 10° NNE
DNEPR-1 R/B 3.6 23:42:56 10° SW 23:47:42 90° NNW 23:52:00 10° NE
Genesis I 4.3 23:49:14 10° NW 23:53:04 43° NNE 23:56:54 10° ESE
Sich 1 Rocket 3.6 23:49:49 11° S 23:54:07 87° ESE 23:58:34 10° NNE
Lacrosse 4 Rocket 4.1 23:56:43 10° W 23:57:55 11° WSW 23:59:07 10° WSW
